User: anonymous   Login
Location: Akho
(42.3047°N, 44.1844°E)
Time: 13:21:11
(UTC+00:00)
Language:

CZ-4C R/B - Orbit

View from above orbital plane
View from above orbital plane
View from above satellite
View from above satellite

Ground track
Ground track

The orbit data is extracted from the following two-line orbital elements,

1 32290U 07055B   21163.73303825  .00001436  00000-0  36399-4 0  9995
2 32290  97.6829 341.9392 0057337 329.2333  30.5555 15.40004909755529
Epoch (UTC): 12 June 2021 17:35:34
Eccentricity: 0.0057337
inclination: 97.6829°
perigee height: 407 km
apogee height: 485 km
right ascension of ascending node: 341.9392°
argument of perigee: 329.2333°
revolutions per day: 15.40004909
mean anomaly at epoch: 30.5555°
orbit number at epoch: 75552

The dashed part of the orbit path shows where the satellite is in the earth's shadow,  

DLR